Theta_e
315 316 315 313 314 313 312 311 307 298 293 290 289 291 291 292 292 294 295 296 301 302 303 303 303 302 302 302 302 301 302 302 302 301 302 302 302 302
315 314 314 313 313 315 312 313 311 304 292 292 290 290 291 291 292 293 294 294 297 300 301 300 300 299 299 299 298 299 299 299 299 300 300 300 300 301
314 314 313 313 313 312 312 312 309 303 292 288 290 290 289 289 290 291 293 293 296 298 300 299 297 296 296 296 296 296 296 296 297 297 298 298 298 299
312 312 310 309 309 310 311 309 304 300 295 287 287 287 288 289 289 290 290 291 293 296 298 298 296 295 294 294 293 293 293 293 293 294 294 295 296 296
310 309 308 308 305 306 306 302 300 296 293 289 286 288 287 287 288 286 288 289 290 292 295 297 296 294 293 293 292 292 292 291 291 291 292 292 293 294
300 301 303 305 304 304 302 300 296 293 291 289 288 286 286 286 287 286 286 287 288 290 291 293 294 294 293 292 292 291 291 291 291 291 290 290 291 291
293 293 293 291 292 298 299 297 296 292 290 289 286 286 284 284 285 285 285 286 287 289 289 289 291 292 293 292 291 292 291 291 290 290 289 289 289 289
291 290 291 290 292 293 294 295 295 292 290 289 287 286 285 285 284 284 284 286 286 288 289 288 289 289 290 292 293 292 291 290 290 290 289 288 288 288
289 288 287 287 288 291 291 291 289 292 293 291 289 288 285 285 285 284 284 285 285 285 287 288 288 289 290 290 292 293 291 290 290 289 289 288 288 287
286 287 286 286 287 288 288 287 287 287 287 287 291 290 289 287 288 288 286 284 283 283 283 287 288 289 289 289 290 293 292 291 290 289 289 288 287 287
286 286 286 286 287 288 286 285 284 284 286 288 288 288 289 288 288 286 284 285 283 283 282 285 284 286 288 289 289 291 292 291 291 290 288 288 287 286
284 285 284 286 288 288 285 283 282 282 281 282 283 286 288 288 288 288 285 285 284 284 283 285 281 283 283 285 287 288 290 289 290 290 289 288 287 286
283 283 284 288 288 287 285 282 282 281 282 279 280 281 281 283 283 283 285 285 283 284 283 287 281 281 282 283 286 287 287 286 287 288 289 288 287 286
282 282 282 288 288 287 283 285 285 279 279 279 279 279 279 280 278 278 278 279 278 281 280 282 284 283 282 282 282 285 286 286 285 285 285 286 287 286
281 283 286 288 287 285 285 285 276 278 276 277 277 276 274 272 271 273 272 272 275 276 276 276 281 280 282 283 283 284 284 284 285 285 284 284 283 283
283 281 285 283 283 281 281 280 277 277 277 276 275 273 271 273 274 275 276 277 277 279 275 276 275 277 280 280 282 283 284 283 283 284 284 284 284 283
280 281 282 281 280 281 280 279 277 275 275 275 274 274 274 273 272 273 273 275 275 276 277 276 277 276 277 278 278 280 281 283 284 283 282 282 283 284
280 277 279 280 280 280 280 281 281 280 278 277 277 276 275 274 272 272 273 273 274 274 275 275 276 276 277 278 279 279 281 281 283 282 283 281 282 284
281 280 280 281 280 280 280 278 278 278 279 279 278 277 277 276 273 272 273 274 274 275 275 275 276 276 275 275 281 282 280 281 280 279 281 281 282 283
284 282 281 281 281 280 279 277 276 277 277 278 278 278 279 279 276 274 274 273 274 275 275 275 275 276 275 277 279 280 282 281 278 280 281 281 283 284
283 283 284 282 282 281 278 276 276 277 278 278 279 280 280 279 278 278 276 273 273 275 274 275 276 277 279 275 274 277 280 282 282 281 282 281 280 279
284 283 284 283 283 282 281 278 277 277 277 278 278 279 280 280 279 279 278 277 275 275 275 277 278 276 274 274 274 276 278 278 278 283 283 283 280 277
283 284 284 283 283 283 282 280 278 277 277 277 278 278 279 279 280 280 279 279 278 277 275 275 276 275 274 274 274 275 276 276 276 277 278 283 283 282
Wind_Speed
7 7 4 3 3 3 4 4 5 4 2 3 2 2 2 2 3 3 4 10 9 10 10 13 14 15 16 14 13 14 15 17 18 19 21 22 21 21
5 7 4 3 4 3 3 3 2 4 4 2 2 3 4 3 3 3 4 6 10 8 11 14 14 13 13 12 12 14 15 17 16 18 19 20 20 20
6 7 6 6 5 4 3 2 3 3 5 2 2 4 3 4 3 3 3 3 4 8 10 13 13 10 11 11 12 13 14 15 16 18 18 19 19 19
6 7 6 4 5 5 3 4 4 3 4 5 3 3 3 5 4 4 3 2 2 6 8 11 12 10 10 11 12 12 13 13 15 16 17 17 18 18
6 8 5 6 4 3 4 5 4 4 4 6 5 3 2 3 3 1 2 1 1 2 6 8 11 10 9 9 9 10 10 11 13 14 14 14 16 17
9 8 6 5 6 6 5 5 5 5 6 6 4 4 3 3 2 3 2 1 2 1 3 4 5 8 8 7 7 6 7 8 10 11 12 13 15 15
9 8 8 7 10 6 5 5 6 4 5 4 4 3 3 3 6 3 4 2 2 1 2 1 2 2 2 3 1 1 4 5 6 7 9 11 11 13
8 8 7 7 10 10 11 9 5 6 5 3 3 3 4 4 4 4 4 3 3 3 3 3 3 3 2 1 3 4 2 2 3 5 5 7 8 9
7 6 5 4 5 7 11 12 9 9 1 4 4 4 5 8 9 7 6 5 4 1 3 3 3 4 4 2 4 5 3 1 1 2 4 5 7 8
6 6 5 5 4 5 6 6 4 3 2 1 3 4 4 9 10 8 8 5 2 2 2 3 3 3 3 3 8 5 6 3 1 2 3 5 6 7
4 5 5 5 7 7 6 6 3 2 1 4 5 6 10 15 12 9 7 7 4 3 4 2 3 2 2 6 6 11 8 4 6 5 4 5 5 6
3 5 3 3 4 4 4 5 5 4 2 0 2 3 6 11 18 9 9 9 3 3 6 5 3 3 3 3 5 5 4 7 7 9 7 6 6 3
3 2 2 4 3 3 3 1 2 4 2 2 2 2 2 3 2 2 6 6 5 3 5 5 3 3 2 3 2 4 6 5 4 5 10 9 7 5
2 1 1 3 3 4 3 3 5 4 2 2 1 1 2 3 2 1 1 2 0 1 2 4 3 5 4 2 4 1 4 5 5 5 4 8 11 9
3 3 3 3 5 4 2 7 6 3 3 1 1 1 1 2 1 1 1 1 2 2 1 2 3 4 5 4 3 3 2 3 6 6 6 6 5 4
4 3 4 4 5 3 2 2 1 1 2 2 2 2 2 1 0 1 2 1 2 3 3 5 4 4 3 6 5 7 7 4 3 6 6 6 6 6
4 2 0 1 2 2 2 2 2 2 2 1 2 2 2 3 3 3 3 2 3 2 1 2 6 6 6 6 6 8 9 9 8 7 6 7 7 7
2 1 1 2 4 4 4 4 4 5 4 4 4 4 4 4 3 3 4 5 5 5 5 3 3 3 3 8 20 11 9 8 7 8 8 7 8 7
2 2 3 3 4 4 4 5 4 3 3 5 5 5 5 5 4 5 5 6 6 7 7 5 5 6 4 7 2 25 9 6 5 7 9 9 7 3
3 3 4 4 4 4 5 4 4 4 4 5 5 5 5 6 5 6 6 7 7 6 6 6 7 8 9 6 3 2 20 7 6 7 6 8 7 10
3 4 4 3 4 4 4 4 4 4 4 4 5 5 5 6 7 7 6 8 7 6 8 8 9 11 5 1 6 7 7 19 13 7 3 6 5 3
2 3 2 3 3 3 3 3 3 4 4 5 5 5 6 6 7 7 7 7 7 8 9 6 3 4 6 9 11 10 6 2 8 22 16 14 4 5
4 4 3 2 2 3 3 2 3 4 4 4 5 5 5 6 7 7 7 7 8 7 7 7 5 5 8 8 11 9 9 9 4 5 8 21 23 23
Wind_Direction
161 156 150 146 126 127 142 163 142 159 157 158 141 164 136 105 59 70 53 40 44 63 73 73 67 65 62 62 56 56 51 51 49 45 42 39 35 29
147 153 142 134 145 143 146 150 120 120 124 138 159 145 156 117 83 81 74 62 37 74 87 86 72 70 70 64 63 57 53 53 49 47 43 41 33 29
144 150 154 146 141 135 136 136 119 105 113 117 94 131 136 150 136 107 86 68 48 55 96 99 94 87 77 70 64 59 55 52 49 46 42 39 32 30
139 128 139 130 131 137 140 124 120 104 125 131 118 142 160 165 158 155 124 85 78 44 108 114 104 94 84 75 66 58 56 55 50 48 42 38 32 30
132 133 132 124 112 115 110 109 111 90 92 139 129 155 118 162 171 95 133 157 13 35 67 110 116 103 88 76 68 61 56 53 53 49 44 38 33 29
66 61 74 107 128 120 106 114 109 108 111 116 121 137 137 158 156 163 189 239 167 75 74 88 91 112 95 75 63 54 49 49 47 47 43 38 29 29
67 66 59 57 69 90 128 131 125 107 119 120 127 134 156 154 199 159 185 172 234 201 151 167 143 135 150 117 130 118 79 59 51 45 36 37 30 28
88 69 60 53 61 78 91 100 131 139 139 147 149 170 179 154 144 162 151 171 219 198 203 202 196 202 190 226 265 191 136 118 70 54 40 27 19 24
91 96 86 70 72 90 87 91 78 63 122 164 172 177 175 177 158 164 177 170 187 140 232 224 196 212 199 203 300 209 191 192 357 21 35 20 13 5
99 101 107 97 94 128 111 94 96 102 79 199 212 187 177 166 178 180 172 138 151 205 201 228 191 235 169 239 255 242 208 200 308 339 0 357 357 355
99 117 119 134 141 136 124 133 150 148 26 66 214 212 183 176 159 134 161 165 209 245 194 233 178 230 222 246 249 238 227 256 245 258 287 322 338 342
76 65 88 116 136 152 143 160 178 189 188 191 43 69 168 178 173 184 164 176 164 204 183 200 172 215 270 216 229 213 220 252 259 259 255 280 314 337
46 28 13 53 37 22 28 17 310 127 127 108 110 106 96 132 167 164 180 173 173 227 182 176 168 164 234 294 275 233 215 215 234 254 260 257 272 278
57 69 39 60 61 61 40 38 86 68 77 71 57 123 183 203 216 235 203 194 99 148 183 187 165 187 193 221 255 210 213 215 208 221 227 243 254 258
158 165 168 82 79 68 61 116 115 129 135 161 246 271 297 323 316 274 311 333 259 254 316 214 210 174 216 234 268 235 254 223 208 221 220 218 217 206
69 56 84 90 72 56 69 63 84 179 187 194 201 169 165 144 233 302 288 242 280 266 226 221 221 201 228 241 258 261 246 264 194 220 226 231 218 208
126 111 233 302 297 286 272 198 195 183 243 231 220 193 194 181 196 186 189 221 252 269 277 237 228 231 244 246 256 237 244 240 235 239 223 246 230 219
106 169 240 226 268 275 273 264 233 232 224 221 234 231 231 218 216 204 203 209 220 222 228 206 190 229 240 239 213 240 235 240 228 215 222 245 255 219
235 239 259 268 276 279 266 264 278 266 232 226 237 237 236 236 209 233 231 229 237 232 229 200 202 203 225 248 278 214 232 221 206 227 223 214 242 212
199 223 247 241 251 270 276 273 270 268 254 242 236 236 239 245 234 239 234 238 241 246 247 218 215 210 213 231 245 255 219 230 201 225 224 232 247 266
243 249 240 229 233 225 247 260 258 266 255 252 254 247 241 236 247 245 240 229 236 244 250 243 232 225 242 259 252 243 239 225 227 223 220 229 234 234
268 267 257 256 259 251 254 254 272 267 257 251 255 255 252 241 249 253 249 249 237 238 248 263 251 192 205 226 248 257 265 235 251 238 237 240 198 234
347 340 333 321 313 305 297 291 277 275 261 262 260 258 254 256 253 249 250 250 253 245 246 257 243 220 231 231 244 257 253 255 245 247 241 238 244 254